Location: Buch
(49.7331°N, 12.1098°E)
Time: 06:01:17
(UTC+00:00)

Landsat 7 - Pass Details

Date: 06 October 2021
Orbit: 701 x 703 km, 98.0° (Epoch: 22 October)

Event Time Altitude Azimuth Distance (km) Brightness Sun altitude
Exits shadow 19:52:24 42° 333° (NNW) 1,011 4.9 -30.9°
Drops below altitude 10° 19:55:34 10° 343° (NNW) 2,181 6.9 -31.3°
Sets 19:57:51 0° 345° (NNW) 3,103 7.8 -31.6°
